Location: Fort Worth, Tx
(32.7431°N, 97.3695°W)
Time: 10:25:10
(UTC-04:00)

Explorer 11/Cluster Stage 4 - Pass Details

Date: 03 March 2024
Orbit: 465 x 1219 km, 28.8° (Epoch: 24 April)

Event Time Altitude Azimuth Distance (km) Brightness Sun altitude
Exits shadow 04:47:35 11° 145° (SE) 2,868 9.5 -39.5°
Drops below altitude 10° 04:47:46 10° 145° (SE) 2,917 9.6 -39.5°
Sets 04:50:39 0° 135° (SE) 3,768 10.3 -38.9°
